User: anonymous   Login
Location: Glendale
(37.4556°N, 88.6714°W)
Time: 13:10:20
(UTC+00:00)
Language:

Cosmos 2056 Rocket - Orbit

View from above orbital plane
View from above orbital plane
View from above satellite
View from above satellite

Ground track
Ground track

The orbit data is extracted from the following two-line orbital elements,

1 20433U 90004B   20056.84771145  .00000003  00000-0  99842-5 0  9995
2 20433  74.0384 350.2152 0042042 240.2893 188.7921 14.36085125576401
Epoch (UTC): 25 February 2020 20:20:42
Eccentricity: 0.0042042
inclination: 74.0384°
perigee height: 741 km
apogee height: 801 km
right ascension of ascending node: 350.2152°
argument of perigee: 240.2893°
revolutions per day: 14.36085125
mean anomaly at epoch: 188.7921°
orbit number at epoch: 57640

The dashed part of the orbit path shows where the satellite is in the earth's shadow,  

DLR